Weather Roundup
Issued by NWS Chicago, IL

Home | Current Version | Previous Version | Graphics & Text | Print | Product List | Glossary On
Versions: 1 2 3 4 5 6 7 8 9 10 11 12 13 14 15 16 17 18 19 20 21 22 23 24 25 26 27 28 29 30 31 32 33 34 35 36 37 38 39 40 41 42 43 44 45 46 47 48 49 50
000
NZUS59 KLOT 221408
HRRLOT

CHICAGO AREA WEATHER ROUNDUP
NATIONAL WEATHER SERVICE CHICAGO/ROMEOVILLE IL
800 AM CST WED NOV 22 2017

NOTE: "FAIR" INDICATES FEW OR NO CLOUDS BELOW 12,000 FEET WITH NO
SIGNIFICANT WEATHER AND/OR OBSTRUCTIONS TO VISIBILITY.

* THESE STATIONS ARE NOT UNDER NWS QUALITY CONTROL. THEY ALSO MAY NOT
  REPORT WEATHER SUCH AS PRECIPITATION OR FOG.

ILZ005-006-012>014-019>023-221500-
NORTHEAST ILLINOIS

CITY           SKY/WX    TMP DP  RH WIND       PRES   REMARKS
OHARE          MOSUNNY   24  15  68 NW7       30.33S WCI  16
MIDWAY         MOSUNNY   25  16  68 NW6       30.34S WCI  18
AURORA         PTCLDY    20  17  88 W3        30.35S
LANSING*       SUNNY     25  17  71 W6        30.34S WCI  18
JOLIET*        SUNNY     24  17  76 NW3       30.36S
WAUKEGAN       CLEAR     22  15  75 W6        30.32S WCI  14
DUPAGE AIRPORT PTCLDY    21  16  81 NW6       30.33S WCI  13
WHEELING       CLEAR     24  16  71 W5        30.35S WCI  18
KANKAKEE*      SUNNY     24  17  75 NW7       30.37S WCI  16
MORRIS*        CLOUDY    22  18  83 W5        30.36R WCI  16
LEWIS AIRPORT* SUNNY     22  17  81 W5        30.35R WCI  16
$$

WIZ051-052-058>065-066-070>072-221500-
SOUTHEAST WISCONSIN

CITY           SKY/WX    TMP DP  RH WIND       PRES   REMARKS
MILWAUKEE      PTCLDY    23  14  68 NW7       30.33R WCI  15
KENOSHA*       CLEAR     21  14  74 W6        30.33R WCI  13
RACINE*        PTCLDY    20  14  77 W7        30.34R WCI  11
BURLINGTON     CLOUDY    23  21  91 CALM      30.34R
WAUKESHA       CLEAR     18  12  79 W5        30.33R WCI  11
WEST BEND      CLEAR     19  14  79 W5        30.31R WCI  13
$$

INZ001>003-010>013-019-020-221500-
NORTHWEST INDIANA

CITY           SKY/WX    TMP DP  RH WIND       PRES   REMARKS
GARY*          MOSUNNY   27  16  63 W8        30.34S WCI  18
MICHIGAN CITY* NOT AVBL
RENSSELAER*    NOT AVBL
VALPARAISO     CLOUDY    31  22  69 SW7       30.31R WCI  24
$$

LMZ740>746-221500-
SOUTHERN LAKE MICHIGAN

STATION/POSITION TIME  SKY/WX   TEMP WIND        PRES    VSBY
                                AIR  DIR/SP/G
                 (UTC)          (F)  (DEG/KT/KT) (MB)    (MI)
HARRISON CRIB    1340            27  290/ 11/ 12   N/A
BURNHAM HARBOR   1400            27  260/  8/ 10   N/A
CALUMET HARBOR   1348            25  270/  5/  8 1026.3S
BURNS HARBOR     1340            32  340/  7/ 12 1026.8S
MICHIGAN CITY    1340            33  310/  7/  9   N/A
$$

ABBREVIATIONS USED IN REMARKS
   TC - TEMPERATURE IN CELSIUS
  WCI - WIND CHILL INDEX
   HX - HEAT INDEX
  VSB - VISIBILITY
$$




USA.gov is the U.S. government's official web portal to all federal, state and local government web resources and services.